Chillicothe, MO

8:58 PM CST on December 09, 2019 (GMT -0600)
Chillicothe

Weather History for KCDJ - October, 2019

Change the Weather History Date:

Saturday, October 19, 2019

  Actual Average (KIRK) Record (KIRK)
Temperature  
Mean Temperature 54 °F -  
Max Temperature 64 °F 62 °F 85 °F (1953)
Min Temperature 45 °F 40 °F 26 °F (1925)
Degree Days  
Heating Degree Days 10    
Growing Degree Days 4 (Base 50)    
Moisture  
Dew Point 49 °F    
Average Humidity 88    
Maximum Humidity 97    
Minimum Humidity 72    
Precipitation  
Precipitation 0.09 in - - ()
Sea Level Pressure  
Sea Level Pressure 29.80 in    
Wind  
Wind Speed 2 mph (South)    
Max Wind Speed 5 mph    
Max Gust Speed -    
Averages and records for this station are not official NWS values.
T = Trace of Precipitation, MM = Missing Value Source: NWS Daily Summary

Daily Weather History Graph

Daily Weather History Graph

Search for Another Location

Airport or City:

Astronomy

Oct. 19, 2019 Rise Set
Actual Time 7:28 AM CDT 6:29 PM CDT
Civil Twilight 7:01 AM CDT 6:56 PM CDT
Nautical Twilight 6:29 AM CDT 7:28 PM CDT
Astronomical Twilight 5:58 AM CDT 7:59 PM CDT
Moon 10:39 PM CDT (10/19) 1:01 PM CDT (10/19)
Length of Visible Light 11h 55m
Length of Day
11h 00m
Waning Gibbous, 69% of the Moon is Illuminated
Oct 19
Waning Gibbous
Oct 21
Last Quarter
Oct 27
New
Nov 4
First Quarter
Nov 12
Full

Hourly Weather History & Observations

Time (CDT) Temp. Dew Point Humidity Pressure Visibility Wind Dir Wind Speed Gust Speed Precip Events Conditions
12:52 AM 54.0 °F 45.0 °F 72% 29.75 in - South 3.5 mph - N/A   Unknown
2:52 AM 53.1 °F 46.0 °F 77% 29.77 in - Calm Calm - N/A   Unknown
3:52 AM 50.0 °F 45.0 °F 83% 29.75 in - SSE 4.6 mph - N/A   Unknown
4:52 AM 52.0 °F 46.0 °F 80% 29.75 in - South 3.5 mph - N/A   Unknown
5:52 AM 50.0 °F 45.0 °F 83% 29.76 in - SSE 3.5 mph - N/A   Unknown
6:52 AM 51.1 °F 46.0 °F 83% 29.76 in - South 3.5 mph - N/A   Unknown
7:52 AM 51.1 °F 46.9 °F 86% 29.78 in - Calm Calm - N/A   Unknown
8:52 AM 51.1 °F 48.9 °F 92% 29.80 in - SSW 4.6 mph - 0.03 in   Unknown
9:52 AM 51.1 °F 50.0 °F 96% 29.80 in - Calm Calm - 0.05 in   Unknown
10:52 AM 54.0 °F 52.0 °F 93% 29.79 in - Calm Calm - 0.01 in   Unknown
11:52 AM 54.0 °F 53.1 °F 97% 29.80 in - Calm Calm - N/A   Unknown
12:52 PM 55.9 °F 54.0 °F 93% 29.79 in - Calm Calm - N/A   Unknown
1:52 PM 57.9 °F 54.0 °F 87% 29.78 in - Calm Calm - N/A   Unknown
2:52 PM 57.9 °F 54.0 °F 87% 29.78 in - Variable 4.6 mph - N/A   Unknown
3:52 PM 60.1 °F 53.1 °F 78% 29.78 in - Variable 4.6 mph - N/A   Unknown
4:52 PM 63.0 °F 54.0 °F 72% 29.78 in - Calm Calm - N/A   Unknown
5:52 PM 60.1 °F 53.1 °F 78% 29.80 in - Calm Calm - N/A   Unknown
6:52 PM 54.0 °F 53.1 °F 97% 29.81 in - Calm Calm - N/A   Unknown
7:52 PM 51.1 °F 50.0 °F 96% 29.83 in - Calm Calm - N/A   Unknown
8:52 PM 48.9 °F 48.0 °F 97% 29.85 in - Calm Calm - N/A   Unknown
9:52 PM 46.9 °F 46.0 °F 97% 29.86 in - Calm Calm - N/A   Unknown
10:52 PM 46.0 °F 45.0 °F 96% 29.87 in - Calm Calm - N/A   Unknown
11:52 PM 45.0 °F 44.1 °F 97% 29.88 in - Calm Calm - N/A   Unknown